Location: Audruicq
(50.8780°N, 2.0797°E)
Time: 20:15:16
(UTC+00:00)

Cosmos 468 Rocket - Pass Details

Date: 15 May 2026
Orbit: 740 x 773 km, 74.0° (Epoch: 8 June)

Event Time Altitude Azimuth Distance (km) Brightness Sun altitude
Exits shadow 22:30:14 28° 191° (S) 1,417 4.9 -18.0°
Maximum altitude 22:33:02 74° 112° (ESE) 803 3.9 -18.2°
Drops below altitude 10° 22:38:17 10° 27° (NNE) 2,315 7.1 -18.4°
Sets 22:40:40 0° 26° (NNE) 3,240 8.0 -18.5°
